Temperature
17 17 17 17 17 17 17 17 17 17 17 17 16 16 15 15 15 15 15 15 15 15 14 14 14 14 14 14 13 13 13 13 13 13 12 12 12 12
17 17 16 17 17 16 16 16 16 17 17 17 16 16 15 15 15 15 15 15 15 14 14 14 14 14 13 13 13 13 13 13 13 12 12 12 12 12
16 16 16 17 16 16 16 16 16 16 16 16 16 16 15 15 15 15 14 14 14 14 14 14 14 13 13 13 13 13 13 12 12 12 12 12 12 11
16 16 16 16 16 16 16 16 16 16 16 16 16 16 15 15 15 15 14 14 14 14 14 14 13 13 13 13 13 12 12 12 12 12 11 11 11 11
17 17 17 16 16 16 16 16 16 16 16 16 16 16 15 15 15 14 14 14 13 13 13 13 13 13 13 13 12 12 12 12 12 11 11 11 11 11
17 17 17 16 16 16 16 16 16 16 16 16 16 16 15 15 14 14 14 14 13 13 13 13 13 13 13 13 12 12 12 12 11 11 11 11 11 11
17 17 16 17 17 16 16 16 16 16 16 16 15 15 15 15 15 14 14 13 13 13 13 12 12 12 12 12 12 12 12 12 11 11 11 11 11 10
16 16 16 17 16 16 16 16 16 16 15 15 15 15 15 15 14 14 14 13 13 13 13 12 12 12 12 12 12 12 12 11 11 11 11 11 11 10
16 16 16 16 16 16 16 16 16 16 16 15 15 15 15 15 14 14 14 13 13 13 12 12 12 12 12 12 12 12 11 11 11 11 11 10 10 10
16 16 16 16 16 16 16 15 15 15 15 15 15 15 14 14 14 14 14 13 13 12 12 12 12 12 12 12 12 12 11 11 11 11 10 10 10 10
16 16 15 15 15 16 15 15 15 15 15 15 15 15 14 14 14 13 13 13 12 12 12 12 12 12 11 11 11 11 11 11 11 11 10 10 10 10
16 16 16 15 15 15 15 15 14 15 14 14 14 14 14 14 14 13 13 12 12 12 12 12 12 11 11 11 11 11 11 11 10 10 10 10 10 9
15 15 15 15 15 15 15 14 14 14 14 14 13 13 13 13 13 13 13 12 12 12 12 12 11 11 11 11 11 11 10 10 10 10 10 10 9 9
15 15 15 15 15 15 15 14 14 14 13 13 13 13 13 13 12 12 12 12 12 12 12 11 11 11 11 11 11 11 10 10 10 10 9 9 9 9
15 15 15 14 14 14 14 14 13 13 13 13 13 12 12 12 12 12 12 12 12 11 11 11 11 11 11 11 11 11 10 10 10 9 9 9 9 9
14 14 14 14 14 13 13 13 13 13 13 12 12 12 12 12 12 11 11 11 11 11 11 11 11 10 10 10 10 10 10 10 9 9 9 9 9 8
14 14 13 13 13 13 13 13 13 12 12 12 12 12 12 12 11 11 11 11 11 11 10 10 10 10 10 10 10 10 10 9 9 9 9 8 8 8
13 13 13 13 13 13 13 12 12 12 12 12 12 12 12 11 11 11 11 11 11 11 10 10 10 10 10 10 10 9 9 9 9 9 8 8 8 8
13 13 13 13 13 12 12 12 12 12 12 12 12 12 11 11 11 11 11 11 10 10 10 10 10 10 10 10 10 9 9 9 9 9 8 8 8 8
13 13 13 12 12 12 12 12 12 12 11 11 11 11 11 11 11 11 11 10 10 10 10 10 10 9 10 10 9 9 9 9 9 8 8 8 8 8
12 12 12 12 12 12 12 12 12 11 11 11 11 11 11 11 11 11 10 10 10 10 10 10 10 9 9 9 9 9 9 9 8 8 8 8 8 8
12 12 12 12 12 12 11 11 11 11 11 11 11 11 11 11 10 10 10 10 10 10 10 10 9 9 9 9 9 9 9 9 8 8 8 8 8 8
12 12 12 12 11 11 11 11 11 11 11 10 10 10 10 10 10 10 10 10 10 10 9 9 9 9 9 9 9 9 9 8 8 8 8 8 8 8
Wind_Speed
5 5 5 4 4 4 4 4 4 4 3 2 2 3 3 2 4 4 4 7 7 6 6 5 4 3 3 2 2 3 3 3 2 2 1 1 2 4
5 5 5 5 4 5 5 5 5 5 5 2 2 2 3 3 4 4 3 8 8 8 7 6 5 4 3 3 2 3 3 3 3 2 2 2 1 2
6 6 7 7 6 5 5 6 5 5 5 4 2 2 3 4 4 4 5 5 6 9 8 7 6 4 4 3 3 3 3 3 2 3 3 3 3 3
7 7 7 6 7 7 6 7 6 6 6 5 4 3 4 5 4 5 4 5 4 9 9 8 7 6 5 5 4 4 3 3 3 2 2 3 3 3
7 7 7 7 8 7 7 7 6 6 6 6 5 3 4 4 4 5 5 4 5 8 10 10 9 8 7 6 6 5 4 4 3 3 2 3 3 3
7 7 7 7 7 7 7 7 6 6 6 6 5 5 4 4 5 5 5 5 5 5 6 7 9 10 9 9 8 7 7 6 5 4 3 3 3 3
7 7 7 6 6 6 6 6 6 6 6 6 6 5 5 5 6 6 5 4 5 5 5 6 7 7 9 10 10 10 9 8 7 6 6 5 5 4
6 6 6 7 6 6 6 7 7 8 7 7 7 7 7 7 6 6 5 5 4 5 5 5 5 5 6 7 10 11 11 10 9 8 8 7 6 6
6 6 6 5 5 6 6 8 9 10 10 9 10 9 8 7 7 8 7 7 5 4 5 6 5 6 6 5 11 12 11 11 10 9 8 8 7 7
6 7 7 6 6 5 7 7 8 9 9 10 9 9 8 6 7 8 7 7 6 5 6 6 6 6 5 6 11 13 13 12 11 10 9 9 9 8
7 7 7 7 3 3 7 8 8 7 7 7 6 6 5 5 7 7 7 7 6 6 6 6 5 5 5 5 8 14 13 13 12 12 11 10 10 10
6 6 5 5 4 5 7 8 8 7 6 5 5 6 7 8 10 10 8 8 7 6 6 6 6 5 5 5 5 8 10 12 13 12 12 11 11 9
6 6 5 5 6 6 8 8 7 5 6 6 6 6 6 6 8 9 8 7 7 6 5 6 6 6 6 4 5 5 6 7 9 10 11 12 12 10
7 6 4 4 5 7 7 6 5 5 6 6 5 5 5 5 5 6 6 7 6 7 5 5 6 6 6 6 5 5 5 6 6 6 7 11 13 13
7 5 3 4 5 6 8 8 7 6 6 6 6 6 5 5 5 4 5 6 6 7 7 7 7 6 7 7 6 4 4 5 6 6 6 6 7 8
6 5 5 6 7 6 6 7 7 6 6 6 6 6 5 5 5 5 5 5 5 5 6 8 8 7 7 6 6 6 5 5 5 5 6 6 7 8
5 5 5 5 5 6 6 6 5 5 6 6 6 6 6 5 5 5 5 5 6 5 5 5 7 8 7 6 6 6 5 5 4 4 5 6 5 6
5 6 6 6 6 6 6 5 6 6 6 6 6 6 7 6 6 5 6 6 6 6 5 5 5 5 6 6 6 7 6 6 5 5 6 6 6 5
6 6 7 7 7 6 6 6 6 5 5 6 6 6 6 6 6 6 6 6 6 6 5 5 5 6 7 7 6 8 7 6 5 5 6 6 7 5
6 7 7 7 7 6 6 6 6 5 5 6 6 6 6 6 6 7 7 7 7 7 6 6 6 6 7 7 5 4 8 7 6 6 6 6 6 5
6 7 7 6 6 6 6 6 6 6 6 6 6 7 6 6 7 7 7 7 7 7 7 6 5 7 6 4 5 5 5 7 7 5 6 6 6 6
6 6 6 6 6 6 6 6 6 6 6 6 6 6 6 6 7 8 7 7 7 7 7 6 6 6 7 7 7 6 5 5 7 9 7 7 6 6
6 6 6 6 6 6 6 7 7 7 6 6 6 6 6 6 7 7 7 7 7 7 7 6 5 6 7 7 7 6 7 7 5 6 6 8 10 8
Wind_Direction
236 229 239 244 239 242 238 241 255 264 262 224 224 209 208 207 165 201 186 154 161 164 163 161 154 142 129 110 89 80 73 63 58 63 103 157 200 209
239 244 244 245 244 242 240 244 248 259 271 250 237 211 193 209 175 201 187 156 169 172 170 167 160 146 139 131 116 102 91 80 77 82 94 121 156 176
239 236 240 247 246 243 240 240 240 243 253 258 242 199 198 224 190 202 198 196 182 176 177 176 172 166 160 152 141 132 122 109 98 97 103 109 119 137
244 245 244 240 238 245 241 238 236 236 242 244 237 221 212 210 205 212 207 206 189 165 176 180 181 181 181 175 171 166 159 151 136 121 118 124 135 141
243 244 246 244 242 243 243 242 238 236 235 239 236 222 229 211 212 217 216 212 203 169 175 183 186 189 191 189 188 183 179 175 172 169 156 147 148 154
246 246 246 245 244 244 242 239 240 239 232 234 233 223 221 211 214 220 218 210 213 198 186 184 184 191 197 196 197 196 194 192 192 189 182 177 178 177
248 249 249 251 262 256 256 247 241 241 237 234 235 231 225 212 219 222 223 213 211 215 207 199 192 200 197 199 200 202 202 203 206 208 206 204 201 197
249 250 250 241 238 237 252 259 256 246 245 243 242 240 236 228 224 225 221 218 222 205 216 224 214 216 208 203 182 190 202 207 211 214 213 212 210 208
251 248 252 246 238 249 239 235 243 244 243 245 249 249 245 229 225 225 221 224 237 207 212 233 221 226 220 185 166 183 198 204 208 213 216 217 215 212
249 245 247 250 241 246 253 249 246 240 238 240 249 254 255 238 228 232 230 227 230 221 214 237 225 226 221 195 174 187 197 202 206 209 213 217 216 215
252 248 246 249 226 223 248 252 252 250 237 235 255 263 267 236 225 227 223 224 232 223 216 236 234 230 226 214 185 185 195 201 206 209 213 216 218 218
252 249 239 242 227 217 243 249 250 249 249 237 233 238 238 224 211 223 229 231 235 237 216 221 229 227 231 219 205 192 198 203 206 211 212 215 218 225
259 255 246 197 223 232 245 250 251 255 247 242 237 235 232 228 220 220 231 240 244 244 221 211 230 231 238 231 215 213 209 206 204 210 211 213 217 225
261 264 263 188 217 230 234 238 240 241 244 240 237 237 233 232 228 226 230 243 252 253 248 237 240 238 238 241 236 218 216 218 218 217 211 204 213 222
259 271 272 218 221 230 224 222 225 230 233 237 237 238 237 233 229 223 222 225 237 239 233 236 238 239 245 248 248 237 226 222 217 221 221 217 215 216
255 249 230 230 236 240 226 222 229 232 235 242 245 242 239 232 228 225 224 220 229 228 219 224 230 237 241 245 249 247 239 235 224 223 228 230 223 217
238 239 243 239 238 237 236 233 229 227 233 239 241 241 240 236 233 230 224 226 232 232 225 220 220 222 234 245 241 241 242 241 233 224 229 237 238 231
230 238 243 245 246 248 243 239 233 232 235 238 241 244 242 238 232 226 226 229 234 237 236 228 220 222 228 237 235 244 246 243 234 221 225 233 240 236
232 247 251 252 252 250 248 244 241 237 235 237 239 243 242 239 235 231 229 231 235 239 239 230 225 228 237 243 230 216 235 238 235 232 227 232 240 237
244 249 251 252 255 253 249 248 246 242 240 241 241 242 240 237 236 236 234 235 238 239 239 235 231 233 241 250 253 242 209 227 237 238 235 231 234 218
251 252 253 255 255 254 252 247 242 241 242 241 239 239 237 233 236 239 237 232 239 242 243 241 234 234 243 241 245 248 235 208 223 242 243 237 236 233
255 254 254 253 251 253 252 247 244 242 241 239 243 244 239 234 234 238 241 238 235 238 244 242 227 225 230 235 239 242 242 225 212 219 236 248 253 249
255 255 254 252 249 250 249 247 247 246 247 246 242 242 241 238 239 239 240 241 240 240 243 241 233 227 228 230 236 240 237 231 229 224 226 216 218 222
Height
1539 1539 1540 1541 1541 1541 1541 1541 1542 1541 1541 1540 1540 1539 1539 1538 1537 1537 1536 1535 1535 1535 1534 1533 1533 1532 1532 1531 1531 1530 1529 1528 1528 1527 1527 1527 1527 1527
1536 1536 1536 1538 1538 1538 1538 1538 1538 1539 1538 1537 1537 1536 1536 1536 1535 1535 1534 1533 1533 1532 1532 1531 1531 1531 1530 1530 1529 1528 1527 1527 1526 1526 1525 1525 1525 1525
1533 1533 1533 1534 1534 1535 1535 1535 1535 1535 1535 1534 1534 1533 1533 1533 1532 1532 1531 1531 1530 1530 1529 1529 1529 1528 1528 1528 1527 1526 1526 1525 1525 1524 1524 1524 1524 1524
1530 1531 1531 1531 1531 1531 1531 1531 1531 1531 1531 1530 1530 1530 1529 1529 1529 1529 1529 1529 1528 1527 1527 1526 1526 1526 1526 1525 1525 1525 1524 1523 1523 1523 1522 1522 1522 1522
1527 1527 1527 1527 1527 1528 1527 1528 1528 1528 1527 1527 1527 1527 1526 1526 1526 1526 1526 1526 1526 1525 1524 1524 1524 1524 1524 1523 1523 1522 1522 1522 1521 1521 1521 1520 1520 1520
1524 1524 1524 1524 1524 1524 1524 1523 1523 1523 1523 1523 1523 1523 1523 1523 1523 1523 1523 1523 1523 1523 1522 1521 1521 1521 1521 1520 1520 1520 1520 1520 1519 1519 1519 1519 1518 1518
1521 1521 1521 1521 1520 1520 1521 1520 1520 1520 1520 1520 1519 1519 1519 1518 1519 1519 1520 1520 1520 1520 1520 1519 1519 1518 1518 1517 1517 1518 1518 1518 1517 1517 1517 1517 1517 1516
1517 1517 1517 1517 1517 1516 1516 1516 1516 1516 1516 1516 1515 1515 1515 1514 1515 1515 1516 1516 1516 1516 1516 1516 1516 1515 1515 1515 1514 1515 1515 1515 1515 1515 1515 1514 1514 1514
1514 1513 1514 1514 1513 1513 1512 1512 1511 1511 1511 1511 1511 1511 1511 1510 1510 1510 1510 1511 1512 1512 1512 1512 1512 1512 1512 1512 1511 1511 1511 1511 1511 1512 1512 1512 1512 1511
1510 1509 1509 1509 1509 1508 1508 1507 1507 1507 1506 1506 1506 1506 1506 1506 1506 1506 1506 1506 1507 1507 1507 1508 1509 1509 1509 1508 1508 1508 1508 1508 1508 1508 1509 1509 1509 1508
1507 1506 1505 1505 1504 1504 1503 1502 1502 1502 1502 1501 1501 1501 1500 1500 1501 1501 1502 1502 1502 1503 1503 1504 1504 1505 1505 1504 1504 1504 1504 1504 1504 1505 1505 1505 1505 1505
1503 1502 1501 1501 1500 1500 1499 1498 1497 1497 1497 1496 1496 1495 1495 1495 1495 1496 1496 1497 1498 1499 1499 1499 1500 1501 1501 1501 1501 1500 1500 1500 1500 1500 1501 1501 1501 1501
1499 1498 1497 1496 1495 1495 1494 1494 1493 1493 1492 1492 1491 1491 1490 1490 1491 1491 1491 1492 1493 1494 1495 1495 1495 1496 1496 1497 1497 1497 1497 1496 1496 1496 1496 1497 1497 1497
1494 1494 1493 1491 1491 1490 1489 1489 1488 1488 1488 1488 1487 1487 1486 1486 1486 1486 1486 1487 1487 1488 1489 1490 1491 1491 1492 1492 1493 1493 1493 1493 1493 1492 1492 1492 1492 1492
1489 1489 1488 1486 1486 1485 1484 1484 1484 1483 1483 1484 1483 1483 1483 1483 1483 1482 1482 1482 1483 1483 1484 1485 1486 1487 1488 1488 1488 1489 1489 1488 1488 1488 1488 1488 1487 1487
1484 1483 1483 1482 1481 1480 1480 1479 1479 1479 1479 1479 1479 1480 1480 1479 1479 1479 1479 1479 1479 1480 1480 1480 1481 1482 1482 1483 1484 1484 1484 1484 1484 1484 1484 1484 1484 1483
1479 1478 1478 1477 1477 1476 1476 1476 1476 1475 1475 1475 1475 1476 1476 1475 1476 1476 1476 1476 1476 1476 1476 1476 1477 1477 1477 1478 1479 1479 1480 1480 1480 1480 1480 1479 1479 1479
1474 1474 1473 1473 1472 1472 1472 1472 1471 1471 1471 1471 1471 1471 1471 1471 1472 1472 1472 1472 1472 1472 1473 1473 1474 1474 1474 1474 1474 1474 1475 1475 1476 1475 1475 1476 1475 1476
1470 1470 1469 1469 1468 1468 1468 1468 1468 1467 1467 1467 1467 1467 1467 1467 1467 1467 1467 1468 1468 1468 1469 1469 1469 1469 1469 1468 1468 1470 1470 1470 1471 1471 1471 1471 1471 1472
1465 1465 1465 1464 1464 1463 1463 1464 1464 1463 1463 1462 1462 1462 1462 1462 1462 1462 1462 1462 1463 1463 1464 1464 1465 1465 1464 1465 1465 1465 1465 1466 1466 1467 1467 1467 1467 1468
1461 1461 1460 1460 1459 1459 1458 1458 1458 1458 1458 1458 1457 1457 1457 1457 1457 1457 1457 1457 1458 1458 1458 1459 1459 1460 1460 1461 1460 1460 1461 1461 1461 1462 1463 1463 1463 1463
1457 1456 1456 1455 1455 1454 1454 1454 1453 1453 1453 1452 1452 1452 1452 1451 1451 1452 1452 1453 1453 1453 1453 1454 1455 1455 1456 1455 1455 1455 1456 1457 1456 1457 1457 1458 1459 1459
1452 1451 1451 1451 1450 1450 1449 1449 1448 1448 1448 1448 1447 1447 1447 1446 1446 1447 1447 1448 1448 1448 1449 1449 1450 1450 1450 1450 1450 1451 1451 1452 1452 1452 1452 1453 1454 1454